Showing default

LARETS, 27944

Orbit data source: Space-Track

LARETS, 27944 is a payload satellite owned by NII KP (CIS) in SSO that was launched on Sat, 27 Sep 2003 UTC via a KOSMOS 11K65M launch vehicle from the Plesetsk Missile And Space Complex (PKMTR). Payload-class satellites include a variety of spacecraft equipped with specific instruments for various scientific and technological missions. These include communications satellites like Starlink; space stations such as the ISS; scientific satellites like the Hubble; Earth observation satellites from companies like Planet Labs, Umbra, and HawkEye 360; GPS; miniature CubeSats for education and research; and military/defense satellites.

Loading next visibility...
Identifier
27944, 2003-042F
Orbit
SSO
Country
Flag of CISCIS
Related business
Manufacturer
NII KP
Mission
Operational Defense Calibration
Bus & Motor
Unknown
Mass
~10 kg wet, ~10 kg dry
Launch date (UTC)
2003-09-27 (23 years ago)
Launch vehicle
KOSMOS 11K65M
Launch site
Plesetsk Missile And Space Complex (PKMTR)
Object type
Payload
Rocket body
Debris
Shape & HBR
Sphere, 0.1 m
Radar Cross Section
0.031 m², Medium (>0.1 m² and < 1m²)

Expand to show TLE details & history
Last TLE update: 11 hours ago

TLE from 11 hours ago
0 LARETS
1 27944U 03042F   26121.49887787  .00000050  00000-0  19154-4 0  9994
2 27944  98.4106 282.7370 0012312 176.2503 183.8792 14.63860646206536
Epoch: 2026-05-01T11:58Z
TLE epoch observation values (Epoch: 2026-05-01T11:58:23.047Z)
Latitude
-0.00015°
Longitude
-116.28927°
Altitude
692.392 km
Speed
7.505 km/s
True Right ascension
18h 50m 56s
True Declination
0° 00' 01"
Sunlit
Object was in daylight at epoch
Visualization orbit readout
Latitude
Unknown
Longitude
Unknown
Altitude
Unknown
Speed
Unknown
Apparent Right ascension
Unknown
Apparent Declination
Unknown
Sunlit
N/A
Visualization observer readout
Local Sidereal Time
06:51:17
Azimuth
Unknown
Elevation
Unknown
Doppler factor
Unknown
Orbital elements
Apogee altitude
686.509 km
Perigee altitude
669.134 km
Semi-major axis
7,055.959 km
Eccentricity
0.00123
Inclination
98.4106°
RAAN
282.737°
Arg. of periapsis
176.2503°
True anomaly
183.86967°
Mean anomaly
183.8792°
Eccentric anomaly
183.87443°
Mean motion
3.66192 °/min
Orbital period
98.31 mins
BSTAR
0.000019154
Loading maneuver chart data...
Computing Atmospheric mass density...
Loading historical data...
Loading historical data...
Loading historical data...
Loading historical data...
Loading historical data...
Loading historical data...
Loading historical data...

Documentation

Showing up to 5 results
|